Terminal Aerodrome Forecast
Issued by NWS

Home | Current Version | Previous Version | Graphics & Text | Print | Product List | Glossary On
Versions: 1 2 3 4 5 6 7 8 9 10 11 12 13 14 15 16 17 18 19 20 21 22 23 24 25 26 27 28
000
FTUS43 KLOT 110527
TAFORD
TAF
KORD 110527Z 1106/1212 33004KT P6SM BKN025
     FM110800 21005KT P6SM SCT030 BKN080
      TEMPO 1111/1114 4SM -SHSN OVC040
     FM111400 19008KT P6SM SCT030 BKN050 BKN120 PROB30 1118/1120 3SM
      -RASN OVC050
     FM112200 VRB04KT P6SM SCT025 OVC050 PROB30 1123/1202 1 1/2SM
      -SN OVC025
     FM120200 33018G30KT P6SM -SHSN OVC025=

USA.gov is the U.S. government's official web portal to all federal, state and local government web resources and services.